User: anonymous   Login
Location: Unspecified
(0.0000°N, 0.0000°E)
Time: 06:51:52
(UTC+00:00)
Language:

STARLINK-5470 - Orbit

View from above orbital plane
View from above orbital plane
View from above satellite
View from above satellite

Ground track
Ground track

The orbit is defined by the following mean orbital elements,

1 54776U          26145.45513973 +.00000000 +00000-0 +98914-4 0 00002
2 54776  53.2124  59.1095 0001216  88.7058 271.4073 15.08835460    07
Epoch (UTC): 25 May 2026 10:55:24
Eccentricity: 0.0001216
inclination: 53.2124°
perigee height: 539 km
apogee height: 541 km
right ascension of ascending node: 59.1095°
argument of perigee: 88.7058°
revolutions per day: 15.08835460
mean anomaly at epoch: 271.4073°

The dashed part of the orbit path shows where the satellite is in the earth's shadow,  

DLR